CAPE
18 21 25 24 18 19 16 8 4 3 4 3 2 10 11 6 10 0 0 0 0 0 0 0 0 0 0 0 0 0 0 0 0 0 0 0 0 0 0 0 0 0 131 594 1223
16 13 16 16 16 15 12 12 6 5 8 7 9 7 8 7 0 0 0 0 0 0 0 0 0 0 0 0 0 0 0 0 0 0 0 0 0 0 0 0 0 0 0 81 91
0 17 18 15 15 13 16 7 6 8 8 10 9 11 19 8 0 0 0 0 0 0 0 0 0 0 0 0 0 0 0 0 0 0 0 0 0 0 0 0 0 0 0 0 0
5 4 4 10 16 23 21 16 5 3 3 7 16 16 20 5 0 0 0 1 0 0 0 0 0 0 0 0 0 0 0 0 0 0 0 0 0 0 0 0 0 0 0 0 0
22 16 17 23 22 21 14 12 9 5 3 3 5 18 13 1 0 0 0 0 0 0 0 0 0 0 0 0 0 0 0 0 0 0 0 0 0 0 0 0 0 0 0 0 0
29 12 23 6 17 11 20 17 10 15 14 12 8 27 18 0 0 0 0 0 0 0 0 0 0 0 0 0 0 0 0 0 0 0 0 0 0 0 0 0 0 0 0 0 0
21 23 32 31 28 24 21 15 13 12 11 10 11 22 13 0 0 0 0 0 0 0 0 0 0 0 0 0 0 0 0 0 0 0 0 0 0 0 0 0 0 0 0 0 0
16 17 8 7 7 8 12 12 11 12 4 12 11 38 13 0 0 0 0 0 0 0 0 0 0 0 0 0 0 0 0 0 0 0 0 0 0 0 0 0 0 0 0 0 0
13 14 6 3 5 7 6 3 6 0 0 6 8 21 0 0 0 0 0 0 0 0 0 0 0 0 0 0 0 0 0 0 0 0 0 0 0 0 0 0 0 0 0 0 0
15 14 12 12 3 9 8 9 0 0 0 6 17 26 0 0 0 0 0 0 0 0 0 0 0 0 0 0 0 0 0 0 0 0 0 0 0 0 0 0 0 0 0 0 0
18 17 20 18 11 9 7 0 0 0 0 0 0 0 0 0 0 0 0 0 0 0 0 0 0 0 0 0 0 0 0 0 0 0 0 0 0 0 0 0 0 0 0 0 0
4 21 28 20 15 1 3 0 0 0 3 0 0 0 0 0 0 0 0 0 0 0 0 0 0 0 0 0 0 0 0 0 0 0 0 0 0 0 0 0 0 0 0 0 0
11 16 17 29 0 0 0 0 0 0 0 0 0 0 0 0 0 0 0 0 0 0 0 0 0 0 0 0 0 0 0 0 0 0 0 0 0 0 0 0 0 0 0 0 0
4 7 12 32 0 0 0 0 0 0 1 0 0 0 0 0 0 0 0 0 0 0 0 0 0 0 0 0 0 0 0 0 0 0 0 0 0 0 0 0 0 0 0 134 1239
7 5 15 31 4 1 0 0 0 0 0 0 0 0 0 0 0 0 0 0 0 0 7 0 0 0 0 0 0 0 0 0 0 0 0 0 0 0 0 0 0 0 1 1116 1099
10 5 7 4 0 0 0 0 0 17 4 0 0 0 0 0 8 0 0 0 1 5 12 0 0 0 0 0 0 0 0 0 0 0 0 0 0 0 0 0 0 1 392 898 508
5 1 2 4 0 0 0 0 7 28 0 0 0 0 0 0 0 16 0 0 10 29 8 21 5 3 0 0 0 0 0 0 0 0 0 0 0 0 0 0 0 319 528 304 146
0 0 0 0 0 0 0 5 3 0 0 0 0 0 0 1 45 34 3 0 1 11 8 8 29 0 0 0 0 0 0 0 0 0 0 0 0 0 0 2 0 251 148 56 49
0 0 0 0 0 0 14 16 0 0 0 2 1 0 0 1 32 34 24 1 3 5 18 29 0 29 15 0 0 0 0 0 0 0 0 0 0 0 1 30 67 35 39 0 0
0 0 0 0 0 0 15 6 1 11 9 21 12 0 0 16 13 62 21 11 1 0 29 25 13 47 47 42 8 0 0 0 0 14 0 0 6 24 3 1 12 14 13 1 0
0 0 0 0 14 12 10 2 9 9 12 32 3 13 1 1 31 11 11 1 1 0 0 30 10 30 30 33 1 0 0 0 0 0 0 0 0 1 0 0 0 2 2 0 0
4 3 0 0 0 39 7 27 10 0 0 55 1 14 22 24 4 1 65 74 3 0 0 14 17 5 0 0 25 2 0 0 0 3 0 0 0 57 5 2 0 0 0 0 0
3 1 0 36 5 6 2 10 4 7 26 26 31 33 1 1 22 1 75 94 0 0 1 25 41 1 12 0 0 0 0 0 0 0 9 7 16 10 62 8 0 0 0 0 0
5 0 2 0 0 17 18 9 5 0 23 50 61 1 0 0 1 0 14 80 0 0 11 1 43 0 0 0 0 0 0 0 3 3 2 1 28 33 15 24 3 0 0 0 0
4 26 33 0 0 7 9 2 19 15 23 0 29 6 18 9 6 17 30 90 52 36 0 43 46 4 6 6 0 29 13 9 6 0 1 30 19 33 0 0 0 0 5 4 0
21 18 28 23 12 11 1 32 6 2 11 19 19 25 0 6 39 5 0 5 8 52 3 18 30 12 26 24 0 35 5 56 31 71 88 34 0 0 0 8 1 3 0 0 0
18 5 26 20 15 9 7 19 22 11 26 33 14 12 3 21 6 4 1 1 15 35 15 1 2 0 3 19 1 0 2 20 5 79 41 0 1 0 0 16 0 0 0 0 0
CIN
-4 -3 -0 -0 -6 -2 -1 -0 -0 -0 -0 -0 -0 -0 -0 -0 -0 -0 -0 -0 -0 -0 -0 -0 -0 -0 -0 -0 -0 -0 -0 -0 -0 -0 -0 -0 -0 -0 -0 -0 -0 -0 -128 -106 -98
-2 -3 -2 -1 -1 -1 -0 -0 -0 -0 -0 -0 -0 -0 -0 -0 -0 -0 -0 -0 -0 -0 -0 -0 -0 -0 -0 -0 -0 -0 -0 -0 -0 -0 -0 -0 -0 -0 -0 -0 -0 -0 -0 -188 -153
-0 -0 -1 -1 -1 -2 -2 -0 -0 -0 -1 -0 -0 -0 -0 -0 -0 -0 -0 -0 -0 -0 -0 -0 -0 -0 -0 -0 -0 -0 -0 -0 -0 -0 -0 -0 -0 -0 -0 -0 -0 -0 -0 -0 -0
-0 -0 -0 -0 -0 -1 -1 -0 -0 -0 -0 -0 -0 -1 -0 -0 -0 -0 -0 -135 -0 -0 -0 -0 -0 -0 -0 -0 -0 -0 -0 -0 -0 -0 -0 -0 -0 -0 -0 -0 -0 -0 -0 -0 -0
-2 -1 -0 -1 -0 -0 -0 -0 -0 -0 -0 -0 -0 -0 -0 -0 -0 -0 -0 -0 -0 -0 -0 -0 -0 -0 -0 -0 -0 -0 -0 -0 -0 -0 -0 -0 -0 -0 -0 -0 -0 -0 -0 -0 -0
-0 -0 -0 -0 -0 -0 -0 -0 -0 -0 -0 -0 -1 -0 -0 -0 -0 -0 -0 -0 -0 -0 -0 -0 -0 -0 -0 -0 -0 -0 -0 -0 -0 -0 -0 -0 -0 -0 -0 -0 -0 -0 -0 -0 -0
-0 -0 -0 -0 -0 -0 -0 -0 -0 -0 -0 -0 -0 -0 -0 -0 -0 -0 -0 -0 -0 -0 -0 -0 -0 -0 -0 -0 -0 -0 -0 -0 -0 -0 -0 -0 -0 -0 -0 -0 -0 -0 -0 -0 -0
-0 -0 -0 -0 -0 -0 -0 -0 -0 -0 -0 -0 -0 -0 -0 -0 -0 -0 -0 -0 -0 -0 -0 -0 -0 -0 -0 -0 -0 -0 -0 -0 -0 -0 -0 -0 -0 -0 -0 -0 -0 -0 -0 -0 -0
-0 -0 -0 -0 -0 -0 -0 -0 -0 -0 -0 -0 -1 -0 -0 -0 -0 -0 -0 -0 -0 -0 -0 -0 -0 -0 -0 -0 -0 -0 -0 -0 -0 -0 -0 -0 -0 -0 -0 -0 -0 -0 -0 -0 -0
-0 -0 -0 -0 -0 -0 -0 -0 -0 -0 -0 -0 -0 -0 -0 -0 -0 -0 -0 -0 -0 -0 -0 -0 -0 -0 -0 -0 -0 -0 -0 -0 -0 -0 -0 -0 -0 -0 -0 -0 -0 -0 -0 -0 -0
-0 -0 -0 -0 -0 -0 -0 -0 -0 -0 -0 -0 -0 -0 -0 -0 -0 -0 -0 -0 -0 -0 -0 -0 -0 -0 -0 -0 -0 -0 -0 -0 -0 -0 -0 -0 -0 -0 -0 -0 -0 -0 -0 -0 -0
-0 -0 -0 -0 -0 -0 -0 -0 -0 -0 -0 -0 -0 -0 -0 -0 -0 -0 -0 -0 -0 -0 -0 -0 -0 -0 -0 -0 -0 -0 -0 -0 -0 -0 -0 -0 -0 -0 -0 -0 -0 -0 -0 -0 -0
-0 -0 -0 -0 -0 -0 -0 -0 -0 -0 -0 -0 -0 -0 -0 -0 -0 -0 -0 -0 -0 -0 -0 -0 -0 -0 -0 -0 -0 -0 -0 -0 -0 -0 -0 -0 -0 -0 -0 -0 -0 -0 -0 -0 -0
-0 -0 -0 -0 -0 -0 -0 -0 -0 -0 -14 -0 -0 -0 -0 -0 -0 -0 -0 -0 -0 -0 -0 -0 -0 -0 -0 -0 -0 -0 -0 -0 -0 -0 -0 -0 -0 -0 -0 -0 -0 -0 -0 -364 -319
-0 -0 -0 -0 -0 -0 -0 -0 -0 -0 -0 -0 -0 -0 -0 -0 -0 -0 -0 -0 -0 -0 -4 -0 -0 -0 -0 -0 -0 -0 -0 -0 -0 -0 -0 -0 -0 -0 -0 -0 -0 -0 -20 -271 -367
-0 -0 -0 -0 -0 -0 -0 -0 -0 -11 -0 -0 -0 -0 -0 -0 -13 -0 -0 -0 -4 -6 -21 -0 -0 -0 -0 -0 -0 -0 -0 -0 -0 -0 -0 -0 -0 -0 -0 -0 -0 -5 -253 -292 -368
-0 -0 -0 -0 -0 -0 -0 -0 -12 -0 -0 -0 -0 -0 -0 -0 -0 -49 -0 -11 -23 -10 -4 -10 -12 -8 -0 -0 -0 -0 -0 -0 -0 -0 -0 -0 -0 -0 -0 -0 -0 -220 -280 -333 -415
-0 -0 -0 -0 -0 -0 -0 -1 -0 -0 -0 -0 -0 -0 -0 -2 -22 -17 -4 -0 -1 -0 -6 -12 -3 -0 -0 -0 -0 -0 -0 -0 -0 -0 -0 -0 -0 -0 -0 -96 -0 -237 -332 -378 -411
-0 -0 -0 -0 -0 -0 -4 -0 -0 -0 -0 -4 -0 -0 -0 -67 -11 -24 -28 -17 -0 -8 -0 -6 -0 -37 -24 -0 -0 -0 -0 -0 -0 -1 -0 -0 -0 -0 -32 -175 -271 -370 -388 -0 -0
-0 -0 -0 -0 -0 -0 -0 -0 -1 -30 -12 -1 -0 -0 -0 -58 -18 -19 -25 -25 -19 -0 -3 -56 -4 -10 -47 -31 -32 -5 -0 -0 -0 -24 -0 -0 -48 -66 -111 -70 -220 -342 -369 -248 -0
-0 -0 -0 -0 -14 -0 -0 -1 -0 -3 -0 -0 -0 -0 -1 -7 -1 -5 -28 -20 -12 -0 -0 -23 -11 -36 -37 -5 -23 -1 -0 -0 -0 -0 -0 -0 -0 -68 -87 -0 -0 -105 -117 -0 -0
-2 -0 -0 -0 -5 -1 -0 -0 -0 -0 -0 -1 -0 -0 -1 -0 -12 -14 -13 -15 -57 -0 -0 -1 -7 -4 -0 -12 -58 -70 -0 -0 -0 -102 -0 -0 -0 -176 -273 -153 -0 -0 -0 -0 -0
-0 -0 -0 -16 -0 -0 -0 -0 -0 -0 -0 -0 -12 -7 -0 -1 -4 -4 -28 -44 -0 -0 -9 -0 -2 -6 -16 -0 -0 -0 -0 -0 -0 -0 -63 -21 -99 -201 -167 -205 -8 -0 -0 -0 -0
-0 -0 -2 -0 -1 -0 -0 -0 -0 -0 -6 -1 -2 -7 -0 -0 -1 -0 -41 -35 -0 -0 -23 -0 -0 -0 -0 -0 -0 -0 -0 -0 -25 -69 -104 -42 -163 -175 -185 -153 -165 -0 -0 -0 -0
-1 -2 -2 -0 -0 -0 -0 -0 -0 -0 -5 -1 -1 -2 -0 -0 -0 -7 -22 -26 -7 -2 -0 -0 -0 -3 -38 -55 -0 -44 -121 -100 -44 -0 -50 -144 -127 -229 -0 -51 -30 -58 -16 -68 -0
-1 -0 -0 -0 -0 -0 -0 -0 -0 -0 -0 -13 -0 -0 -0 -0 -0 -0 -0 -47 -17 -1 -0 -3 -5 -21 -48 -48 -0 -17 -113 -105 -135 -182 -211 -201 -3 -0 -0 -199 -178 -190 -0 -0 -0
-16 -11 -0 -0 -0 -0 -1 -0 -0 -0 -0 -0 -0 -0 -0 -0 -3 -1 -0 -0 -4 -0 -0 -0 -3 -0 -0 -19 -12 -0 -14 -147 -136 -162 -182 -0 -169 -0 -0 -211 -50 -0 -0 -0 -0
Wind_Speed
15 15 13 14 15 15 17 19 20 19 18 19 19 18 19 21 22 11 14 16 15 22 5 5 4 5 2 4 4 3 2 5 8 8 9 3 6 9 8 1 3 5 7 7 10
16 16 16 15 15 15 16 16 17 18 17 18 18 18 19 22 19 15 22 20 25 13 8 11 4 5 3 6 4 6 6 9 8 8 8 2 4 14 6 4 3 5 7 3 5
18 17 15 16 17 16 16 18 18 16 15 16 16 16 16 17 8 11 9 15 25 22 7 8 4 6 6 3 6 7 10 7 4 12 11 11 4 5 5 5 3 3 4 1 3
16 17 18 18 17 17 17 19 21 21 19 18 15 15 15 7 8 3 9 15 16 16 12 7 6 7 7 10 8 5 5 8 6 9 6 4 3 7 5 8 7 8 4 6 3
16 17 18 16 17 18 19 19 20 21 21 20 18 14 8 5 17 14 22 6 12 14 16 12 10 8 8 6 7 7 11 9 9 13 17 5 13 8 10 10 7 9 5 5 3
19 20 18 21 19 21 21 20 20 20 20 20 18 13 6 19 9 12 14 8 11 16 15 13 8 8 3 10 11 6 19 18 12 12 14 12 14 9 9 10 8 7 8 7 5
19 20 21 21 21 22 22 22 22 22 22 21 18 12 14 31 7 10 13 8 6 18 10 18 17 8 9 7 10 15 12 12 11 9 9 6 15 17 9 8 11 11 10 9 8
19 19 22 23 23 24 24 25 25 24 25 22 18 12 18 16 15 22 17 10 15 16 19 15 16 13 3 6 7 6 11 17 15 9 9 11 27 7 9 9 12 11 9 8 9
19 19 20 23 24 24 25 28 30 30 24 16 8 5 16 8 10 20 21 15 12 13 15 10 11 8 6 7 5 4 9 6 7 8 8 13 19 8 11 9 12 10 11 9 9
20 20 21 22 24 22 24 29 31 22 4 6 6 6 9 10 6 6 10 22 9 16 14 16 7 7 12 9 16 11 5 3 7 5 8 13 10 8 11 9 11 11 11 9 9
23 22 22 23 25 24 16 9 6 1 4 12 13 11 18 12 16 17 6 12 12 14 17 14 10 21 21 17 8 8 7 6 6 11 7 9 13 12 17 8 12 10 12 11 11
24 23 23 24 26 26 15 4 7 4 16 18 24 29 31 32 20 18 9 11 13 17 18 11 28 15 9 16 16 11 10 9 8 9 7 14 13 12 14 11 10 10 13 11 7
24 23 23 22 27 9 3 11 12 16 8 13 23 19 25 22 29 25 8 19 17 19 23 24 3 19 16 17 18 16 15 9 8 14 5 6 8 5 8 7 7 5 5 2 7
25 24 23 23 10 7 12 8 10 16 6 11 8 9 8 10 10 23 24 14 14 27 18 20 23 17 20 18 16 17 10 15 15 10 6 6 7 5 5 6 5 6 8 10 16
27 28 24 14 11 7 8 10 15 3 7 9 6 3 7 10 9 2 14 12 20 16 19 23 24 26 21 23 15 14 15 16 18 6 4 4 3 8 3 5 4 6 11 6 17
28 30 28 12 6 12 13 11 3 2 10 10 6 12 21 11 8 6 4 8 7 13 15 24 7 21 27 13 21 14 12 11 6 6 10 11 8 7 2 6 3 9 15 15 12
31 34 26 11 8 6 3 2 2 8 5 7 6 17 17 16 14 4 7 10 7 16 17 17 19 18 13 20 19 14 15 6 4 6 9 8 5 8 6 5 5 17 16 16 13
35 36 11 8 6 7 1 3 8 7 14 15 18 22 13 7 6 4 1 5 9 16 8 15 16 24 23 20 18 20 14 7 7 5 4 4 6 5 8 6 1 18 17 21 19
33 8 8 6 8 6 3 4 7 5 9 12 20 15 0 6 7 1 2 5 6 13 6 15 19 13 21 17 21 20 19 11 7 3 5 1 4 4 3 5 15 20 19 18 14
12 7 7 7 2 7 4 7 5 5 11 14 17 10 13 9 8 4 5 7 5 4 8 7 12 19 17 13 17 23 7 7 1 8 4 2 3 4 6 7 10 18 18 14 16
5 8 6 14 5 3 4 6 10 11 14 5 3 8 10 16 11 9 6 5 4 5 8 6 3 5 11 10 14 4 19 1 8 6 8 5 5 3 7 7 3 7 10 20 17
4 7 5 8 6 3 3 12 5 17 16 11 6 11 11 11 5 7 11 5 6 5 2 2 2 4 9 1 0 6 3 9 9 4 3 6 4 6 7 14 5 6 6 7 15
7 6 6 4 5 6 8 11 16 14 14 5 4 8 3 5 3 9 9 7 12 7 8 5 7 6 9 2 4 3 14 7 8 5 5 7 4 7 3 15 9 9 5 7 13
4 6 5 4 6 8 13 10 13 16 10 7 11 2 4 4 6 5 6 6 15 8 9 6 4 4 9 5 7 6 11 10 9 6 6 4 8 9 11 12 13 7 7 6 12
2 3 2 8 11 16 15 12 15 15 8 8 5 2 5 5 7 6 7 6 10 10 5 5 7 6 6 11 12 1 3 3 6 9 8 10 10 16 14 15 18 18 16 4 8
2 4 3 12 12 14 13 8 17 14 7 4 8 9 6 6 7 6 7 2 2 7 3 3 4 6 6 12 21 4 6 9 9 10 12 10 3 5 7 14 11 15 15 14 15
2 4 5 7 10 11 6 14 18 24 10 9 13 11 8 8 6 12 9 12 3 3 3 4 2 4 4 6 10 2 3 9 12 8 13 6 4 13 4 17 19 19 17 17 15
Wind_Direction
345 341 340 335 336 334 331 330 328 326 325 326 327 328 327 323 312 295 241 221 198 235 201 321 239 241 174 235 211 144 176 212 223 197 236 341 358 305 287 15 18 315 112 156 147
339 340 338 335 331 328 323 321 321 321 321 322 323 324 325 325 310 266 242 234 221 180 154 202 218 195 201 211 236 171 209 220 202 210 250 163 339 303 309 327 31 41 14 96 154
342 334 331 328 324 320 316 318 316 310 310 312 315 319 324 329 313 253 290 236 220 211 220 185 215 161 199 197 225 215 229 209 270 237 256 273 274 254 325 310 227 190 180 200 141
335 334 331 326 321 318 317 317 314 311 311 310 313 318 316 316 279 256 21 358 188 188 196 205 198 181 197 207 219 256 241 213 246 257 256 219 227 261 200 237 283 299 255 134 180
321 321 319 320 322 318 316 312 309 307 307 306 305 312 324 247 244 268 294 359 140 168 192 202 193 164 192 217 236 226 250 253 246 246 257 265 256 226 249 250 261 277 284 279 130
332 329 325 322 319 318 314 308 303 298 297 299 301 302 258 266 242 259 257 256 177 186 193 189 212 198 227 233 200 228 234 245 248 250 254 248 264 165 238 244 266 251 255 266 225
338 335 332 329 324 319 313 304 297 294 290 289 288 279 246 242 275 292 288 311 207 191 191 207 210 184 179 303 236 234 264 261 239 229 238 200 259 242 206 244 215 247 245 241 231
334 330 327 323 319 315 310 304 295 290 287 282 277 261 253 254 253 263 257 267 243 217 214 193 205 221 195 305 321 210 235 248 254 228 246 170 254 236 229 208 234 231 242 236 236
332 325 323 322 320 318 313 304 296 286 284 265 249 206 267 297 225 250 231 223 209 202 217 210 179 202 230 204 282 236 245 226 267 199 218 200 252 241 233 210 243 236 236 231 229
329 325 322 318 315 315 311 307 292 294 238 211 233 227 260 250 204 232 177 194 211 194 210 212 198 201 214 176 212 223 209 202 199 239 198 241 252 256 258 221 224 231 235 211 212
329 325 321 318 314 314 318 335 354 319 254 200 195 229 289 252 268 279 171 165 204 195 198 196 205 215 215 216 230 233 226 240 224 244 228 242 249 241 252 213 241 242 225 213 212
326 323 323 318 315 311 306 239 229 339 295 231 243 240 242 252 275 256 275 203 196 207 194 212 227 215 218 224 220 225 223 239 278 259 177 251 249 230 235 234 203 218 202 196 221
324 323 320 320 315 324 253 246 287 332 274 278 233 237 239 214 244 254 247 199 204 204 205 206 242 207 211 223 215 217 219 220 229 277 247 259 264 244 235 185 161 193 207 157 173
321 319 317 324 315 329 296 276 329 322 289 286 241 266 178 198 276 233 224 219 225 212 209 222 223 203 208 223 206 225 203 227 239 250 244 159 257 260 217 169 157 124 120 119 115
319 314 314 318 290 263 249 330 317 289 300 278 248 156 108 164 306 34 214 213 218 206 182 217 203 216 213 219 201 224 225 231 235 215 215 241 94 269 237 183 177 156 98 112 124
320 313 313 304 237 242 267 290 294 107 243 265 294 11 352 344 346 348 13 208 219 223 220 222 212 198 223 213 223 215 232 232 232 199 236 237 148 269 197 208 196 96 127 128 113
321 311 307 269 252 207 228 296 117 224 309 253 321 347 350 337 325 35 20 335 278 207 216 222 222 231 205 219 234 212 218 238 253 215 225 215 160 215 219 246 195 134 136 122 118
323 312 277 238 216 246 216 86 223 251 232 304 323 328 311 309 35 46 119 284 256 258 223 207 215 210 211 212 215 223 215 176 200 171 189 217 203 231 198 179 108 128 140 133 136
322 310 300 270 182 155 189 181 224 224 267 300 314 305 331 331 334 111 253 221 274 180 232 202 231 214 218 219 216 226 217 192 124 348 105 244 332 32 10 142 122 134 139 136 133
318 312 292 321 173 147 236 233 251 256 304 320 293 251 282 300 324 240 188 189 203 307 276 285 226 219 219 209 225 210 199 176 316 146 156 258 189 201 31 358 146 141 136 132 130
312 326 273 358 65 65 294 242 285 303 312 295 283 279 258 280 265 274 239 164 169 59 1 213 167 327 201 199 231 179 207 193 120 151 146 155 251 180 129 79 334 114 139 139 135
312 310 302 340 44 309 312 338 323 285 293 291 302 271 269 301 273 238 204 229 134 166 214 224 296 166 224 162 341 297 300 180 172 177 129 143 245 99 135 99 52 64 110 131 126
306 272 298 41 0 326 303 307 297 297 304 283 252 240 31 292 223 244 193 184 157 151 193 154 213 150 149 4 343 161 261 205 110 98 179 127 220 157 157 106 87 78 66 127 124
299 311 337 352 355 327 322 307 313 304 302 301 278 33 330 288 242 255 202 166 169 174 219 45 255 190 205 142 148 172 220 176 128 119 153 165 143 173 166 135 125 104 38 67 70
305 323 346 316 330 315 307 289 340 331 293 294 264 221 295 287 301 243 238 146 183 204 172 228 204 193 138 156 162 7 49 41 128 158 151 177 161 186 176 169 161 152 151 156 87
330 341 328 293 298 310 310 340 325 310 267 302 310 320 302 272 239 303 351 355 214 195 160 214 199 140 67 145 157 155 49 75 99 103 83 120 105 80 168 157 155 162 155 155 146
298 260 268 292 307 309 307 320 316 316 289 334 330 310 294 309 322 287 262 277 275 297 161 261 102 85 105 136 123 55 144 84 91 82 136 147 196 65 164 156 159 163 154 129 122